Location: Downe
(51.3167°N, 0.0500°E)
Time: 01:57:10
(UTC+00:00)

Cosmos 1515 Rocket - Pass Details

Date: 17 November 2019
Orbit: 605 x 631 km, 82.5° (Epoch: 08 December)

Event Time Altitude Azimuth Distance (km) Brightness Sun altitude
Rises 06:01:31 0° 344° (NNW) 2,879 6.7 -12.1°
Reaches altitude 10° 06:03:48 10° 339° (NNW) 1,968 5.8 -11.8°
Maximum altitude 06:07:58 46° 267° (W) 822 3.8 -11.1°
Drops below altitude 10° 06:12:05 10° 194° (SSW) 1,952 6.2 -10.5°
Sets 06:14:21 0° 188° (S) 2,852 7.1 -10.2°
